Weather History for Ravenna, OH

Change the Weather History Date:

Monday, May 27, 2013

  Actual Average (KCAK) Record (KCAK)
Temperature  
Mean Temperature 46 °F 62 °F  
Max Temperature 57 °F 72 °F 92 °F (1978)
Min Temperature 35 °F 52 °F 30 °F (1961)
Degree Days  
Heating Degree Days 19 5  
Month to date heating degree days 209  
Since 1 July heating degree days 6085  
Cooling Degree Days 0 2  
Month to date cooling degree days 27  
Year to date cooling degree days 33  
Moisture  
Dew Point 41 °F    
Average Humidity 72    
Maximum Humidity 100    
Minimum Humidity 44    
Precipitation  
Precipitation 0.04 in 0.14 in 2.65 in (1956)
Month to date precipitation 3.71  
Year to date precipitation 15.16  
Snow  
Snow 0.00 in 0.00 in - ()
Month to date snowfall 0.1  
Since 1 July snowfall 47.5  
Snow Depth -    
Sea Level Pressure  
Sea Level Pressure 30.21 in    
Wind  
Wind Speed 2 mph (ESE)    
Max Wind Speed 12 mph    
Max Gust Speed -    
Visibility 10 miles    
Events Rain    
T = Trace of Precipitation, MM = Missing Value Source: NWS Daily Summary

Daily Weather History Graph

Daily Weather History Graph

Search for Another Location

Airport:

Trip Planner

Search our weather history database for the weather conditions in past years. The results will help you decide how hot, cold, wet, or windy it might be!

Date:

Astronomy

May. 27, 2013 Rise Set
Actual Time 5:56 AM EDT 8:47 PM EDT
Civil Twilight 5:24 AM EDT 9:20 PM EDT
Nautical Twilight 4:43 AM EDT 10:01 PM EDT
Astronomical Twilight 3:55 AM EDT 10:49 PM EDT
Moon 11:25 PM EDT (5/27) 8:33 AM EDT (5/27)
Length of Visible Light 15h 56m
Length of Day
14h 50m
Waning Gibbous, 91% of the Moon is Illuminated
May 27
Waning Gibbous
May 31
Last Quarter
Jun 8
New
Jun 16
First Quarter
Jun 23
Full

Hourly Weather History & Observations

Time (EDT) Temp. Dew Point Humidity Pressure Visibility Wind Dir Wind Speed Gust Speed Precip Events Conditions
12:14 AM 45.0 °F 35.4 °F 69% 30.27 in 10.0 mi Calm Calm - N/A   Clear
12:34 AM 43.0 °F 33.8 °F 70% 30.27 in 10.0 mi Calm Calm - N/A   Clear
12:53 AM 43.0 °F 34.2 °F 71% 30.28 in 10.0 mi Calm Calm - N/A   Clear
1:14 AM 41.0 °F 34.9 °F 79% 30.27 in 10.0 mi Calm Calm - N/A   Clear
1:34 AM 41.0 °F 36.0 °F 82% 30.27 in 10.0 mi Calm Calm - N/A   Clear
1:53 AM 40.8 °F 36.7 °F 85% 30.27 in 10.0 mi Calm Calm - N/A   Clear
2:14 AM 39.9 °F 36.9 °F 89% 30.27 in 10.0 mi Calm Calm - N/A   Clear
2:33 AM 38.8 °F 37.9 °F 97% 30.27 in 10.0 mi Calm Calm - N/A   Clear
2:54 AM 39.9 °F 39.4 °F 98% 30.26 in 10.0 mi Calm Calm - N/A   Clear
3:14 AM 39.7 °F 38.7 °F 96% 30.27 in 10.0 mi Calm Calm - N/A   Clear
3:34 AM 38.1 °F 36.1 °F 93% 30.26 in 10.0 mi Calm Calm - N/A   Clear
3:53 AM 38.3 °F 38.3 °F 100% 30.26 in 10.0 mi Calm Calm - N/A   Clear
4:14 AM 37.2 °F 37.2 °F 100% 30.26 in 10.0 mi Calm Calm - N/A   Clear
4:34 AM 38.7 °F 38.8 °F 100% 30.25 in 10.0 mi Calm Calm - N/A   Clear
4:53 AM 37.0 °F 37.2 °F 100% 30.25 in 10.0 mi Calm Calm - N/A   Clear
5:14 AM 36.7 °F 36.9 °F 100% 30.26 in 10.0 mi Calm Calm - N/A   Clear
5:34 AM 37.8 °F 37.9 °F 100% 30.26 in 10.0 mi Calm Calm - N/A   Clear
5:53 AM 37.8 °F 37.9 °F 100% 30.26 in 10.0 mi Calm Calm - N/A   Clear
6:14 AM 35.8 °F 36.0 °F 100% 30.26 in 10.0 mi Calm Calm - N/A   Clear
6:33 AM 37.6 °F 37.8 °F 100% 30.26 in 10.0 mi Calm Calm - N/A   Clear
6:54 AM - - N/A% 30.27 in 10.0 mi Calm Calm - N/A   Clear
7:14 AM 42.6 °F 42.3 °F 99% 30.27 in 10.0 mi Calm Calm - N/A   Clear
7:34 AM 46.6 °F 40.3 °F 79% 30.27 in 10.0 mi ESE 4.6 mph - N/A   Clear
7:53 AM 47.5 °F 37.4 °F 68% 30.27 in 10.0 mi ESE 4.6 mph - N/A   Clear
8:14 AM 48.6 °F 37.6 °F 66% 30.27 in 10.0 mi SE 4.6 mph - N/A   Clear
8:34 AM 50.2 °F 38.1 °F 63% 30.27 in 10.0 mi East 4.6 mph - N/A   Clear
8:53 AM 51.8 °F 38.5 °F 60% 30.27 in 10.0 mi ESE 3.5 mph - N/A   Clear
9:14 AM 54.0 °F 37.9 °F 55% 30.27 in 10.0 mi SE 3.5 mph - N/A   Clear
9:33 AM 55.9 °F 36.7 °F 48% 30.27 in 10.0 mi SE 4.6 mph - N/A   Clear
9:54 AM 56.1 °F 36.1 °F 47% 30.27 in 10.0 mi ESE 5.8 mph - N/A   Unknown
10:14 AM 57.2 °F 37.8 °F 48% 30.27 in 10.0 mi ESE 3.5 mph - N/A   Unknown
10:34 AM 57.0 °F 37.6 °F 48% 30.26 in 10.0 mi SE 3.5 mph - N/A   Clear
10:54 AM 57.2 °F 35.4 °F 44% 30.26 in 10.0 mi SSE 3.5 mph - N/A   Clear
11:14 AM 57.4 °F 37.4 °F 47% 30.26 in 10.0 mi Calm Calm - N/A   Clear
11:33 AM 57.6 °F 37.4 °F 47% 30.26 in 10.0 mi SE 4.6 mph - N/A   Clear
11:54 AM 57.4 °F 36.7 °F 46% 30.26 in 10.0 mi SE 3.5 mph - N/A   Clear
12:14 PM 57.2 °F 37.0 °F 47% 30.26 in 10.0 mi SE 3.5 mph - N/A   Scattered Clouds
12:33 PM 57.9 °F 37.0 °F 46% 30.25 in 10.0 mi SSE 3.5 mph - N/A   Clear
12:54 PM 57.9 °F 36.5 °F 45% 30.25 in 10.0 mi South 6.9 mph - N/A   Clear
1:14 PM 57.4 °F 35.8 °F 44% 30.24 in 10.0 mi SSW 3.5 mph - N/A   Scattered Clouds
1:34 PM 56.8 °F 39.2 °F 52% 30.23 in 10.0 mi SSE 4.6 mph - N/A   Mostly Cloudy
1:54 PM 56.3 °F 39.9 °F 54% 30.23 in 10.0 mi SSW 4.6 mph - N/A   Mostly Cloudy
2:14 PM 56.7 °F 40.8 °F 55% 30.22 in 10.0 mi SE 5.8 mph - N/A Rain Light Rain
2:33 PM 57.9 °F 42.3 °F 56% 30.21 in 10.0 mi Calm Calm - N/A   Scattered Clouds
2:54 PM 57.2 °F 41.9 °F 57% 30.21 in 10.0 mi SE 3.5 mph - N/A   Mostly Cloudy
3:14 PM 56.8 °F 42.8 °F 59% 30.21 in 10.0 mi SSE 3.5 mph - N/A Rain Light Rain
3:33 PM 56.1 °F 43.7 °F 63% 30.19 in 10.0 mi SE 4.6 mph - N/A Rain Rain
3:54 PM 56.1 °F 45.5 °F 68% 30.20 in 10.0 mi Calm Calm - N/A   Light Drizzle
4:14 PM 55.9 °F 45.1 °F 67% 30.18 in 10.0 mi SE 5.8 mph - N/A   Overcast
4:33 PM 56.1 °F 45.5 °F 68% 30.17 in 10.0 mi ESE 5.8 mph - N/A   Overcast
4:53 PM 56.3 °F 44.4 °F 64% 30.17 in 10.0 mi ESE 5.8 mph - N/A   Overcast
5:14 PM 56.3 °F 44.8 °F 65% 30.17 in 10.0 mi ESE 5.8 mph - N/A   Scattered Clouds
5:33 PM 56.7 °F 45.3 °F 66% 30.18 in 10.0 mi ESE 4.6 mph - N/A   Scattered Clouds
5:54 PM 56.3 °F 45.1 °F 66% 30.17 in 10.0 mi East 8.1 mph - N/A   Mostly Cloudy
6:14 PM 55.9 °F 45.7 °F 68% 30.13 in 10.0 mi East 11.5 mph - N/A Rain Light Rain
6:33 PM 55.6 °F 45.9 °F 70% 30.13 in 10.0 mi ESE 5.8 mph - N/A   Mostly Cloudy
6:54 PM 55.6 °F 45.7 °F 69% 30.13 in 10.0 mi East 9.2 mph - N/A   Mostly Cloudy
7:14 PM 55.4 °F 45.7 °F 70% 30.13 in 10.0 mi East 10.4 mph - N/A   Mostly Cloudy
7:33 PM 55.4 °F 45.5 °F 69% 30.11 in 10.0 mi East 8.1 mph - N/A   Mostly Cloudy
7:54 PM 55.6 °F 45.5 °F 69% 30.12 in 10.0 mi East 9.2 mph - N/A   Mostly Cloudy
8:14 PM 55.6 °F 44.8 °F 67% 30.11 in 10.0 mi East 9.2 mph - N/A   Overcast
8:33 PM 55.4 °F 44.6 °F 67% 30.11 in 10.0 mi ESE 8.1 mph - N/A   Overcast
8:54 PM 55.4 °F 44.8 °F 67% 30.11 in 10.0 mi ESE 5.8 mph - N/A   Overcast
9:14 PM 55.0 °F 45.5 °F 70% 30.10 in 10.0 mi ESE 5.8 mph - N/A   Light Drizzle
9:33 PM 54.7 °F 45.9 °F 72% 30.10 in 10.0 mi ESE 5.8 mph - N/A Rain Light Rain
9:54 PM 54.5 °F 46.0 °F 73% 30.10 in 10.0 mi East 8.1 mph - N/A   Overcast
10:14 PM 54.5 °F 46.4 °F 74% 30.11 in 10.0 mi ESE 4.6 mph - N/A Rain Light Rain
10:33 PM 53.4 °F 47.3 °F 80% 30.11 in 10.0 mi ESE 3.5 mph - N/A Rain Light Rain
10:54 PM 52.7 °F 48.2 °F 85% 30.10 in 10.0 mi East 8.1 mph - N/A Rain Light Rain
11:14 PM 52.3 °F 49.3 °F 89% 30.10 in 10.0 mi East 9.2 mph - 0.01 in Rain Rain
11:33 PM 52.0 °F 51.6 °F 99% 30.09 in 10.0 mi East 9.2 mph - 0.03 in Rain Light Rain
11:54 PM 52.0 °F 51.8 °F 99% 30.08 in 10.0 mi East 10.4 mph - 0.04 in Rain Light Rain